Location: Unspecified
(43.4680°N, 87.1740°E)
Time: 20:26:03
(UTC+00:00)

NOSS 0 Rocket - Pass Details

Date: 02 August 2021
Orbit: 936 x 954 km, 70.0° (Epoch: 22 September)

Event Time Altitude Azimuth Distance (km) Brightness Sun altitude
Rises 19:01:02 0° 314° (NW) 3,630 7.4 -28.2°
Reaches altitude 10° 19:05:17 10° 287° (WNW) 2,675 6.3 -28.0°
Enters shadow 19:06:38 12° 274° (W) 2,533 6.1 -28.0°
